Regional Weather Roundup
Issued by NWS

Home | Current Version | Previous Version | Text Only | Print | Product List | Glossary Off
Versions: 1 2 3 4 5 6 7 8 9 10 11 12 13 14 15 16 17 18 19 20 21 22 23 24 25 26 27

000
ASUS45 KBOU 231607
RWRCO

WEATHER ROUNDUP FOR COLORADO
NATIONAL WEATHER SERVICE DENVER/BOULDER CO
1000 AM MDT TUE AUG 23 2016

NOTE: "FAIR" INDICATES FEW OR NO CLOUDS BELOW 12000 FEET WITH NO
SIGNIFICANT WEATHER AND/OR OBSTRUCTIONS TO VISIBILITY.

COZ001>005-013-030-031-231700-
...NORTHWEST COLORADO...

CITY           SKY/WX    TMP DP  RH WIND       PRES   REMARKS
CRAIG          FAIR      68  40  35 NE8       30.22S
HAYDEN         FAIR      61  37  41 E7        30.24S
MEEKER         FAIR      61  45  55 SE5       30.24F
MOUNT WERNER   NOT AVBL
STEAMBOAT SPGS FAIR      58  39  50 CALM      30.26S
WALDEN         FAIR      59  36  41 CALM      30.31F
$$

COZ006>008-011-231700-
...WEST CENTRAL VALLEYS...

CITY           SKY/WX    TMP DP  RH WIND       PRES   REMARKS
GRAND JUNCTION FAIR      69  47  45 S7        30.17S
MONTROSE       FAIR      62  46  55 W3        30.25S
EAGLE          SUNNY     61  45  55 CALM      30.29S
RIFLE          FAIR      61  49  64 CALM      30.23S
DELTA          FAIR      67  48  50 CALM      30.22S
NUCLA          CLOUDY    59  50  72 NW6       30.28R
$$

COZ017>023-064>068-231700-
...SOUTHWEST COLORADO...

CITY           SKY/WX    TMP DP  RH WIND       PRES   REMARKS
DURANGO        PTSUNNY   62  51  67 E6        30.29R
CORTEZ         FAIR      68  49  50 CALM      30.22S
PAGOSA SPRINGS FAIR      59  48  67 CALM      30.35R
TELLURIDE      CLOUDY    58  41  53 CALM      30.42S
WOLF CREEK PAS CLOUDY    39  39 100 SW7       30.60R
$$

COZ009-010-012-014-032>034-037-058>063-231700-
...CENTRAL COLORADO...

CITY           SKY/WX    TMP DP  RH WIND       PRES   REMARKS
ASPEN          PTSUNNY   62  41  46 CALM      30.32R
BUENA VISTA    FAIR      63  39  41 SE8       30.30S
COPPER MTN     PTSUNNY   48  34  57 NW8       30.57R
BERTHOUD PASS  CLOUDY    39  27  60 N8        30.58R
COTTONWOOD PAS FAIR      61  36  39 E7        30.41R
GUNNISON       CLOUDY    52  45  76 CALM      30.39R
KREMMLING      FAIR      55  36  47 CALM      30.32F
LEADVILLE      PTSUNNY   55  36  48 NW5       30.42R
MONARCH PASS   CLOUDY    41  36  81 W13       30.65R
SALIDA         FAIR      69  41  36 NW5G16    30.34S
SUNLIGHT       CLOUDY    50  43  76 CALM      30.53R
WILKERSON PASS NOT AVBL
$$

COZ069>075-231700-
...SAN LUIS VALLEY/SANGRE DE CRISTO MOUNTAINS...

CITY           SKY/WX    TMP DP  RH WIND       PRES   REMARKS
ALAMOSA        FAIR      60  44  55 CALM      30.32S
LA VETA PASS   NOT AVBL
SAGUACHE       FAIR      61  41  48 W5        30.34S
$$

COZ035-036-038>040-231700-
...NORTHERN COLORADO FRONT RANGE...

CITY           SKY/WX    TMP DP  RH WIND       PRES   REMARKS
DENVER INTL AP FAIR      80  38  22 W7        30.05R
DMNS CITY PARK   N/A     79  43  28 SW1       30.05S
AURORA         MOSUNNY   77  39  25 SW6       30.08R
FRONT RANGE AP MOSUNNY   82  36  18 SW5       30.07R
ERIE MUNI ARPT FAIR      83  31  15 SW3       30.03R
BOULDER MUN AP FAIR      81  36  19 CALM      30.04R
CENTENNIAL     FAIR      77  36  22 W5        30.09R
BROOMFIELD     MOSUNNY   79  36  21 S7        30.07R
FORT COLLINS   FAIR      79  43  27 E7        30.01S
LONGMONT       FAIR      82  44  26 E3        30.04R
$$

COZ041-046-047-076>085-087-088-231700-
...PIKES PEAK/PALMER DIVIDE AND SOUTHERN FOOTHILLS...

CITY           SKY/WX    TMP DP  RH WIND       PRES   REMARKS
COLO. SPRINGS  FAIR      81  35  19 NE6       30.13R
A. F. ACADEMY  SUNNY     76  36  23 N8        30.14R
SCHRIEVER AFB  NOT AVBL
ELLICOTT       NOT AVBL
FALCON         FAIR      76  35  22 N9        30.18R
FORT CARSON    FAIR      78  40  25 NW10      30.09R
LIMON          FAIR      83  32  16 N13       30.06R
MONUMENT HILL  FAIR      72  34  25 CALM      30.20R
TRINIDAD       FAIR      78  43  28 W14       30.11R
$$

COZ042>045-048>051-090-091-231700-
...NORTHEAST COLORADO...

CITY           SKY/WX    TMP DP  RH WIND       PRES   REMARKS
GREELEY ARPT   FAIR      68  52  56 SE3       30.02R
AKRON          FAIR      79  42  26 NW14      30.00R
BURLINGTON     FAIR      85  39  19 N15       29.95R
WRAY           NOT AVBL
STERLING       FAIR      82  37  20 N9G17     29.94S
HOLYOKE        FAIR      84  43  23 NW14G23   29.91S
FORT MORGAN    FAIR      77  42  28 SW3       30.02R
$$

COZ086-089-092>099-231700-
...SOUTHEAST COLORADO...

CITY           SKY/WX    TMP DP  RH WIND       PRES   REMARKS
PUEBLO         FAIR      84  41  21 NW18      30.01R
LA JUNTA       FAIR      82  46  28 W21G28    29.98R
LAMAR          FAIR      81  50  33 W13       29.93R
SPRINGFIELD      N/A     81  49  32 W9        30.00R
$$




USA.gov is the U.S. government's official web portal to all federal, state and local government web resources and services.